Theta_e
309 309 309 308 308 307 307 307 307 308 307 307 306 304 303 301 299 298 298 296 295 295 295 294 295 295 295 297 295 295 295 295 296 297 298 297 296 296 295 295 294 294 295 293 294 293 294 292 291 292 291 289 289 290 290 290 290 290 291 290 289 289 288 287 286 287 289 292 292 292 293 294 292 293 292 293 294 294 297 295 296 295 295 295 296
308 308 308 307 307 307 306 306 306 307 306 306 304 302 300 299 299 297 296 295 295 294 294 294 294 294 294 294 294 294 294 294 294 296 297 296 296 297 295 295 294 293 293 292 292 294 292 291 291 291 291 289 289 289 289 289 289 289 289 290 288 289 290 288 287 287 286 289 290 292 292 293 291 293 292 292 292 294 294 294 295 295 295 295 295
309 308 307 306 306 305 305 305 306 305 304 303 302 301 300 299 298 296 295 295 295 294 293 293 293 293 293 292 292 292 293 293 293 294 295 295 295 294 295 294 294 293 292 292 292 292 292 292 291 291 292 288 289 288 289 288 289 288 289 289 288 289 289 289 288 286 286 287 290 290 291 291 291 291 293 293 294 294 293 293 294 295 296 296 295
308 307 306 305 305 306 305 305 304 304 302 302 300 299 299 298 298 296 295 294 294 294 293 292 292 291 292 291 291 291 292 292 292 293 293 294 295 295 294 294 293 293 293 292 292 291 291 290 291 290 291 288 287 288 288 288 288 289 289 289 289 288 289 290 289 288 287 286 288 289 291 290 291 292 293 293 292 292 293 293 294 294 294 295 295
307 307 306 305 305 305 304 304 302 302 301 300 299 299 298 297 297 295 294 294 293 293 294 292 291 291 291 290 290 290 290 291 292 292 292 293 294 294 293 293 293 293 293 293 297 291 292 290 290 290 289 287 288 288 288 287 288 289 288 288 289 289 290 289 289 288 287 287 288 290 290 290 291 291 292 291 291 292 292 292 293 293 294 295 296
306 306 306 305 304 303 303 303 302 301 300 299 299 298 298 297 296 295 294 293 292 292 291 292 292 290 290 290 290 290 290 290 290 290 291 292 293 293 293 293 293 292 292 293 293 292 292 290 291 289 288 287 288 288 287 287 288 288 288 288 288 288 288 288 289 288 288 287 287 287 289 289 289 290 291 291 290 290 290 292 293 293 293 293 294
307 306 305 304 303 302 302 302 302 301 300 299 299 298 297 296 295 294 294 292 291 291 291 290 291 290 290 290 290 290 290 290 289 289 290 291 292 292 292 293 293 292 292 293 292 292 291 291 290 289 288 287 288 288 288 288 289 289 290 289 289 288 288 288 288 287 287 287 287 288 288 289 289 288 290 291 291 290 289 289 290 292 293 293 293
305 305 305 304 303 302 302 302 301 300 300 299 298 298 297 296 295 294 293 291 291 290 290 290 291 290 290 291 291 291 290 290 289 289 289 289 291 291 292 293 293 293 293 292 292 291 291 291 290 290 289 289 288 289 288 289 289 289 289 289 289 288 288 288 287 287 287 286 286 286 287 287 288 289 290 290 288 289 290 290 288 289 291 292 292
305 305 304 303 303 303 303 302 301 301 300 299 298 297 297 296 295 294 293 293 293 290 290 290 289 289 289 289 289 290 291 291 291 290 289 289 289 291 291 292 292 292 292 291 291 291 291 291 290 290 295 301 301 299 298 298 293 290 290 289 290 289 288 287 287 287 286 286 286 287 287 286 287 287 287 287 287 287 289 290 289 290 291 291 292
305 304 303 302 302 302 302 302 301 300 299 298 298 297 296 296 295 293 292 292 291 291 290 290 289 288 288 288 289 290 290 291 295 295 297 291 290 291 293 291 292 292 293 291 291 291 291 290 295 303 302 301 300 298 296 296 297 294 292 291 290 288 288 287 287 287 286 286 286 286 285 285 286 287 287 287 289 290 289 290 289 290 290 290 291
304 303 303 302 302 302 302 301 300 300 299 298 298 297 296 295 293 292 292 291 291 292 289 288 288 288 288 288 288 289 290 292 293 292 293 296 292 292 292 291 290 290 292 291 290 292 291 290 289 295 298 297 295 295 295 294 293 293 294 295 295 292 288 287 286 287 287 286 286 286 285 285 286 287 287 288 288 289 289 289 289 289 288 287 286
303 303 303 302 302 301 301 300 299 299 299 298 298 296 295 293 292 291 290 290 290 289 288 288 287 287 288 288 288 289 289 294 292 293 293 293 295 293 291 291 291 290 289 289 290 291 289 289 290 291 292 293 295 292 292 293 293 293 293 293 293 292 292 290 288 286 286 286 286 286 286 286 286 287 287 288 288 288 289 289 289 289 288 288 288
303 303 303 302 301 301 300 300 299 299 299 298 297 295 293 292 290 289 289 290 288 288 287 287 286 286 287 287 288 288 288 293 292 292 292 292 292 292 290 290 290 289 289 290 289 289 290 291 291 291 290 297 297 290 289 290 293 293 293 293 292 293 291 290 291 291 289 287 286 286 286 287 286 287 289 289 289 288 288 288 289 289 289 288 289
304 303 302 302 301 300 300 299 299 299 299 298 296 294 292 290 289 289 290 289 287 287 286 286 286 286 287 287 287 287 288 292 292 292 292 291 291 292 288 289 289 289 289 289 290 289 289 289 288 289 290 290 291 290 290 289 289 289 288 288 288 290 291 291 291 291 292 290 287 286 288 288 287 288 290 290 288 288 288 288 289 289 289 289 291
303 302 301 301 300 300 300 299 299 299 298 298 296 294 291 290 289 289 288 288 287 287 287 286 286 288 286 285 287 287 289 291 291 291 291 291 291 291 287 289 288 288 288 289 288 288 288 289 287 288 289 289 292 293 290 289 288 288 287 287 287 288 288 288 288 289 290 289 288 288 288 289 289 289 289 290 290 290 290 290 290 290 291 292 292
302 302 301 300 300 300 300 299 299 298 298 297 296 294 292 290 289 289 288 287 287 288 287 288 287 285 285 285 286 285 287 291 291 291 291 291 292 290 286 286 286 287 287 288 288 288 288 288 288 289 290 290 293 292 291 290 288 287 287 287 287 287 287 292 292 292 291 290 289 289 290 290 291 290 291 290 291 291 292 293 292 291 290 288 287
301 301 301 300 300 300 300 299 299 298 298 297 296 295 293 291 290 291 288 288 288 288 288 287 287 286 286 286 285 285 287 290 290 291 291 290 290 286 285 286 286 286 285 286 287 288 288 289 290 290 290 289 292 290 290 291 287 286 286 286 286 286 287 289 291 291 291 291 291 291 290 290 290 291 291 291 291 292 291 290 288 289 287 285 286
301 301 300 300 300 300 300 299 299 298 298 297 296 295 294 292 291 292 290 289 289 289 289 288 286 287 286 285 285 286 287 290 291 290 291 291 291 285 286 285 284 285 285 286 287 287 287 296 296 290 289 289 291 290 289 290 287 286 285 285 285 285 286 288 288 289 291 291 291 290 290 290 291 291 291 291 291 292 291 288 289 289 287 287 285
301 300 300 300 300 300 299 299 298 298 298 297 296 295 294 293 293 292 291 291 291 290 292 289 287 287 287 286 295 288 287 290 291 290 290 291 290 284 285 283 284 283 284 287 287 287 287 290 293 293 291 291 290 289 289 290 287 286 285 284 284 284 286 287 286 287 287 287 287 288 289 290 291 290 291 292 292 294 293 291 291 289 287 287 287
300 301 300 300 300 299 299 299 299 298 298 297 296 295 294 293 292 291 291 291 291 290 291 290 289 289 289 290 292 290 287 287 290 290 291 290 292 286 285 284 285 284 283 288 288 286 286 286 290 290 290 289 289 289 289 290 287 287 285 284 284 284 287 286 288 288 287 287 286 287 287 288 288 289 289 290 291 294 292 292 292 291 288 287 287
301 301 300 300 299 299 299 299 298 298 298 296 296 295 294 292 291 291 291 291 290 289 290 290 290 289 289 290 291 289 289 287 289 290 290 290 291 290 283 284 284 284 283 285 283 284 285 286 286 290 290 289 289 289 289 290 290 289 286 285 285 288 289 286 287 290 286 287 287 287 287 288 288 288 288 289 290 292 292 292 293 292 290 288 286
301 300 299 299 299 299 299 299 298 298 297 296 295 293 292 292 291 291 292 292 291 291 291 291 291 289 289 291 291 289 292 295 286 291 290 290 290 291 286 287 287 285 285 283 284 284 285 286 286 289 290 289 289 289 289 289 289 290 287 288 288 288 288 289 286 286 286 286 285 286 286 286 286 287 288 288 289 291 292 292 293 292 292 290 288
299 299 298 298 298 298 298 298 298 298 297 296 295 292 291 292 292 292 292 292 292 292 291 290 289 289 290 291 292 290 288 291 294 290 291 289 290 290 290 287 289 290 284 285 284 285 285 286 288 291 289 289 289 289 289 289 290 288 288 288 288 288 289 286 286 285 285 285 285 285 285 285 285 286 287 287 288 290 291 292 293 293 292 291 291
298 298 298 298 298 298 298 298 298 297 296 295 295 293 292 293 293 293 292 292 291 291 290 290 289 289 290 290 292 290 289 288 292 293 290 290 289 289 289 289 289 287 287 285 285 284 286 285 288 289 289 289 289 289 289 289 288 288 288 288 288 288 286 285 284 284 285 284 284 284 284 285 285 285 286 287 288 290 291 292 292 293 292 291 290
297 297 297 297 297 298 298 297 297 296 296 296 295 295 294 294 293 292 292 291 291 291 290 291 290 290 290 290 290 290 290 288 286 289 291 290 289 289 288 288 289 289 285 286 287 287 288 289 289 289 288 289 289 288 288 289 288 288 288 288 290 284 284 283 283 284 283 283 283 284 284 285 285 286 287 288 289 290 291 291 292 292 292 291 290
297 296 296 297 297 297 296 296 296 296 296 296 296 296 295 294 294 293 293 292 292 292 291 291 291 290 290 290 289 290 290 286 287 285 291 292 291 289 289 289 290 290 290 288 289 289 289 289 289 288 288 289 288 286 285 287 288 288 288 289 284 283 283 283 283 283 282 283 283 283 284 284 285 286 287 288 288 288 289 290 290 290 291 290 288
297 296 296 296 296 296 295 295 295 295 295 296 296 296 295 294 294 294 293 293 292 292 291 291 290 290 289 289 288 288 288 286 286 285 284 284 283 286 285 286 291 290 286 286 288 287 289 289 288 287 288 288 288 288 287 287 286 285 284 283 283 283 284 282 283 282 283 283 283 283 284 285 286 286 286 286 287 288 289 290 289 289 290 289 288
296 296 296 296 296 296 295 293 294 295 295 295 295 295 295 295 294 294 294 293 293 292 291 290 290 290 290 289 288 288 287 287 286 285 285 284 285 281 281 287 282 282 284 285 285 287 287 288 287 285 285 285 284 283 283 284 283 283 284 283 283 283 286 287 287 283 282 282 283 283 284 284 284 285 285 285 286 287 289 289 289 289 289 289 287
296 296 296 296 295 296 296 296 296 295 295 295 295 295 295 295 295 294 295 295 295 294 292 291 291 292 292 290 289 288 287 287 288 289 288 288 285 283 283 282 282 282 288 289 288 286 283 284 284 284 283 283 282 282 282 282 282 283 283 283 283 282 282 281 281 282 282 282 282 282 283 283 283 284 284 284 285 286 288 288 289 289 289 289 286
296 295 296 295 295 295 295 295 296 296 295 294 294 292 290 293 294 295 294 294 293 293 293 293 293 291 291 291 292 291 289 290 291 290 289 288 288 288 288 288 288 286 288 288 287 282 281 279 281 281 282 280 281 280 281 281 281 282 282 284 283 282 282 281 281 281 282 282 282 282 282 282 283 283 283 283 284 285 287 288 288 289 287 287 286
295 295 295 295 294 295 295 295 296 295 295 294 294 292 291 289 288 289 291 292 291 291 291 292 291 291 293 291 290 291 291 291 290 290 289 289 288 288 288 288 288 288 288 283 279 279 278 280 282 281 280 281 279 280 280 280 279 280 281 281 281 282 282 281 281 281 281 281 282 282 282 282 282 282 282 283 283 284 286 287 288 288 287 287 286
295 295 295 295 294 294 296 295 295 295 294 294 294 293 292 291 290 288 288 289 290 290 290 290 291 290 291 292 292 290 288 289 289 289 289 289 288 287 287 287 288 288 288 288 282 280 277 278 280 281 281 280 281 279 280 280 280 280 279 279 281 281 280 280 281 280 281 281 281 282 282 282 282 282 282 283 283 284 284 285 286 286 286 287 286
295 295 295 295 294 294 295 295 294 294 294 292 292 292 292 291 290 288 288 288 288 289 290 290 290 290 290 290 291 290 289 289 289 289 289 288 288 287 288 288 288 288 288 282 279 281 280 281 281 282 281 279 282 281 281 281 282 280 280 279 279 281 281 281 280 280 280 281 281 281 282 282 282 282 282 282 282 283 284 284 285 286 286 285 285
296 296 295 295 295 295 295 295 294 294 294 293 293 292 291 291 291 289 287 287 288 288 288 288 289 289 289 290 290 289 289 289 289 289 288 287 287 287 288 286 288 288 287 282 278 281 283 282 282 282 282 281 280 280 280 281 281 280 281 280 281 281 280 280 280 281 280 281 281 281 282 282 282 281 281 282 283 283 283 283 284 284 285 285 284
296 292 290 293 295 295 295 295 295 294 294 293 291 290 290 290 290 289 288 287 287 287 287 288 287 288 288 288 289 289 289 289 289 289 288 287 287 288 288 284 283 282 282 282 282 282 282 282 282 283 282 282 282 281 281 282 281 282 281 282 281 281 280 280 281 280 280 281 281 281 281 281 281 282 281 281 281 282 282 282 283 284 284 285 285
296 295 294 294 295 295 295 295 295 295 294 293 292 291 290 289 288 288 287 287 287 286 285 285 285 287 289 288 288 288 288 288 288 288 288 287 287 287 284 284 283 283 283 283 282 282 282 283 282 283 282 282 282 282 282 282 282 281 281 280 280 280 279 280 279 279 280 280 280 280 281 281 282 281 281 281 282 282 282 282 282 283 284 285 285
296 295 295 295 295 295 295 295 295 295 292 290 291 290 289 289 288 287 286 286 285 285 285 283 284 286 286 286 289 288 288 288 288 288 288 288 288 286 285 284 283 284 283 285 285 284 283 284 282 282 283 283 282 282 282 282 282 282 282 281 280 280 279 279 280 278 278 278 279 280 279 280 281 281 280 280 281 281 282 282 282 282 283 284 285
296 295 295 296 296 295 295 295 294 290 291 291 291 291 290 289 289 288 287 286 285 285 284 283 286 284 284 286 291 287 285 288 288 288 288 288 283 283 285 283 283 283 285 285 284 284 283 284 283 283 284 283 283 282 282 282 281 281 281 282 280 278 283 281 278 278 276 277 277 278 278 279 280 280 280 279 280 280 281 281 281 281 282 284 284
296 292 291 291 292 296 295 293 292 293 292 291 291 290 289 289 289 288 288 286 285 284 284 284 284 284 285 286 285 287 287 284 283 286 286 285 284 284 283 283 283 283 284 284 285 283 284 284 285 283 284 284 283 283 283 283 282 281 281 278 279 277 278 276 278 277 277 277 277 277 277 278 279 279 279 279 280 280 280 280 281 281 280 281 283
295 294 291 290 293 293 293 291 292 293 291 292 292 291 290 288 289 288 288 286 286 285 284 283 284 284 286 284 284 284 287 286 285 286 285 285 285 284 283 284 284 284 285 284 284 284 283 284 284 284 284 284 283 283 283 283 284 281 280 277 278 279 279 277 276 276 277 277 276 277 276 277 278 278 279 280 280 279 279 280 280 280 281 280 282
296 295 290 290 292 293 292 291 291 293 292 291 292 291 291 289 289 287 287 287 286 286 285 285 285 286 286 287 288 287 287 286 286 285 285 286 285 284 284 284 285 284 284 284 284 284 284 284 284 284 284 284 284 284 283 284 282 281 280 279 277 278 278 278 276 276 276 276 276 276 277 277 277 277 279 280 282 280 280 280 280 280 281 281 281
295 293 292 292 291 293 292 291 292 291 291 291 291 291 290 289 289 288 287 287 286 286 286 286 286 286 287 288 288 288 287 285 286 285 285 284 285 285 285 285 284 285 285 285 285 285 284 284 284 284 284 284 284 284 282 283 283 282 280 279 278 278 278 278 278 277 276 277 277 276 276 277 278 278 278 282 278 278 279 280 280 279 280 280 280
295 294 293 293 293 293 292 292 292 292 291 291 291 289 290 290 289 288 287 287 287 287 286 286 286 286 286 286 287 287 286 285 285 285 285 285 285 284 285 285 285 285 285 286 285 285 284 284 284 285 285 285 286 285 285 285 284 283 281 280 280 279 279 279 278 278 277 276 277 277 277 276 277 276 277 278 278 278 278 279 279 279 279 279 279
295 294 294 293 294 293 293 293 292 291 291 290 290 290 290 290 289 289 288 288 287 287 287 287 287 286 286 285 284 284 285 285 285 286 286 286 285 285 286 286 285 285 284 285 285 284 283 284 284 285 285 285 285 285 285 285 285 283 283 281 280 280 279 278 279 279 278 277 277 277 277 277 277 275 277 278 276 277 278 278 279 279 279 279 279
296 296 295 294 294 294 293 292 292 291 290 289 289 290 289 290 289 288 288 288 287 287 287 287 286 286 285 284 283 284 285 285 286 285 285 286 286 286 286 286 285 285 285 285 285 284 284 284 284 285 286 286 286 285 285 285 284 284 284 285 283 283 283 282 282 281 278 278 278 277 277 277 277 276 276 277 277 276 277 276 276 279 279 279 278
296 295 294 294 293 293 293 292 290 291 290 290 290 290 289 289 289 288 287 287 287 287 286 286 285 285 285 286 284 284 284 284 285 285 285 285 285 286 286 286 286 285 285 286 285 284 284 284 285 285 286 287 287 286 285 285 285 285 284 284 285 286 286 284 281 279 278 278 278 278 277 277 277 277 279 277 275 276 276 276 276 277 276 277 278
296 296 294 294 294 293 293 292 291 290 291 290 290 290 289 288 288 286 286 287 287 286 285 285 284 285 285 285 285 285 284 284 285 285 286 286 286 286 286 286 286 285 285 285 285 285 285 285 285 285 286 287 287 287 287 286 285 284 284 284 284 285 284 283 281 281 281 281 280 278 277 278 278 278 278 277 277 277 277 277 277 276 277 276 276
296 295 295 294 294 294 293 291 290 288 289 290 289 289 289 288 288 287 286 286 286 285 285 284 284 284 284 285 284 285 285 285 285 285 285 285 285 286 286 286 286 286 286 285 285 285 285 285 286 286 286 286 287 287 287 287 286 285 284 284 285 285 285 282 282 282 281 280 279 280 279 279 278 277 277 277 276 276 278 278 277 277 276 277 277
295 295 294 294 293 294 292 291 291 290 290 290 288 288 288 287 287 287 287 286 286 286 286 286 285 284 284 285 284 284 284 285 284 284 284 285 285 285 286 286 285 285 285 286 286 286 286 286 286 286 286 287 287 287 287 287 287 287 286 285 285 283 282 281 282 284 281 282 280 279 279 279 279 279 278 277 277 276 276 275 275 277 276 276 276
294 294 294 293 292 293 292 291 291 293 292 291 290 288 287 287 286 286 286 285 285 285 286 286 286 286 286 286 285 285 284 284 285 285 285 286 286 286 286 286 285 285 285 286 286 287 286 286 286 286 286 287 287 287 287 287 287 287 287 287 284 283 282 281 281 281 282 281 281 281 281 280 280 279 278 278 277 276 276 277 277 278 276 275 275
293 293 293 293 292 293 292 291 290 291 291 290 289 288 287 286 286 286 285 285 286 286 286 286 286 286 286 286 286 286 286 286 286 286 286 286 286 286 286 286 286 286 286 286 286 286 286 286 286 286 286 287 286 287 287 287 287 287 286 286 285 284 283 282 283 282 281 281 283 281 280 281 280 280 279 279 277 276 279 279 278 276 276 276 276
Wind_Speed
7 6 6 7 8 8 7 7 8 7 8 7 8 7 8 8 7 6 6 6 6 6 6 5 5 5 6 6 6 5 5 6 5 6 7 7 7 7 6 7 7 5 5 4 4 4 4 4 3 2 1 3 3 3 4 3 3 4 3 4 5 5 2 3 6 10 8 5 8 9 11 11 10 10 12 11 13 12 11 10 11 10 10 10 10
7 7 6 6 7 7 7 6 7 7 8 7 8 8 8 8 6 6 7 4 5 6 6 4 4 5 6 6 6 5 5 5 4 6 7 7 5 5 6 6 6 5 4 4 4 3 3 4 2 1 1 3 3 3 3 3 3 4 4 4 5 6 4 2 5 6 13 9 9 8 10 9 11 10 11 12 12 13 14 13 10 9 10 10 10
7 7 7 7 7 6 6 6 7 8 9 7 8 8 8 7 6 8 7 5 4 5 5 5 5 5 6 5 5 5 5 5 4 6 6 6 6 4 5 6 6 5 5 4 4 3 3 3 1 1 2 3 2 3 3 3 3 3 5 4 5 7 7 4 4 7 10 11 9 11 9 9 9 13 12 10 11 11 14 13 12 10 9 10 10
8 8 8 8 8 8 7 7 8 8 8 7 9 7 7 6 6 8 6 5 7 5 5 5 4 5 6 5 5 5 5 5 5 5 5 5 5 5 4 5 4 5 5 4 4 3 4 3 0 1 1 2 3 3 3 3 3 4 5 6 5 7 7 6 6 6 7 11 10 10 11 10 10 10 11 10 11 11 10 12 12 12 11 10 10
9 8 9 10 9 9 9 7 8 8 8 8 9 8 8 7 6 7 7 6 5 6 5 4 4 5 6 5 5 5 4 4 5 5 4 4 4 4 4 4 4 4 4 4 4 4 3 3 2 2 2 3 4 4 4 5 5 4 5 6 6 6 6 7 7 6 8 11 12 9 9 10 9 11 10 11 11 10 10 11 12 12 12 10 10
8 9 9 10 9 9 8 8 8 8 8 8 9 8 8 7 7 5 6 8 5 5 5 4 4 5 5 5 5 5 4 4 4 4 4 4 4 3 3 3 3 3 3 3 3 3 3 3 3 3 2 2 4 4 4 5 5 6 6 7 7 6 7 8 7 7 8 9 10 13 9 10 11 9 10 11 12 13 12 11 10 10 11 12 10
9 10 9 10 9 9 9 8 8 8 8 8 8 8 8 8 7 6 5 7 6 6 5 5 4 5 4 5 5 5 4 4 4 3 4 4 4 4 3 3 2 1 2 3 3 2 2 3 3 3 3 3 4 4 4 5 5 7 7 7 7 6 8 8 8 8 8 9 10 9 11 9 8 12 11 10 11 10 13 13 13 9 9 9 12
9 9 10 9 9 9 9 9 8 8 8 8 8 8 8 7 7 6 6 7 6 5 5 5 4 4 4 5 4 4 4 4 4 3 3 3 4 3 2 4 3 1 1 1 2 2 3 3 3 3 3 4 4 5 4 5 5 6 8 6 7 7 8 8 8 8 9 9 9 11 9 10 11 9 9 10 11 9 7 10 14 14 14 10 7
10 10 10 10 9 8 8 8 8 9 8 8 8 8 8 7 7 6 6 6 5 5 5 4 5 5 5 5 5 4 5 4 3 2 3 3 3 4 3 1 2 3 2 0 1 2 2 3 3 4 3 7 8 8 9 8 5 6 8 7 7 7 7 7 8 8 8 8 10 9 10 11 10 12 12 11 12 13 13 10 12 11 12 14 12
11 11 11 10 9 8 8 8 9 10 9 9 8 8 8 7 7 7 6 6 5 5 5 4 4 5 5 5 5 5 5 3 4 5 4 3 4 4 4 3 2 1 1 0 0 1 3 3 4 8 8 9 9 11 12 12 11 9 9 8 8 7 7 7 8 8 8 9 10 11 12 12 12 12 13 13 12 13 13 12 13 13 14 14 13
10 11 11 10 10 10 9 8 9 10 9 9 8 8 8 7 7 7 6 5 5 4 4 5 4 4 5 5 6 5 4 3 5 5 6 6 5 5 4 3 3 2 0 1 1 1 3 4 4 5 5 7 7 11 11 12 13 14 15 14 11 8 7 9 8 7 8 9 10 10 11 13 13 12 12 13 12 13 14 14 14 14 14 16 17
10 10 10 10 10 10 9 9 9 9 10 9 9 8 8 8 7 7 6 5 4 5 5 4 4 4 4 5 5 5 4 5 6 7 8 9 7 5 4 3 3 2 2 1 3 3 3 3 4 3 4 4 5 5 8 12 14 14 14 14 14 14 11 7 8 9 9 10 11 11 11 12 13 13 13 13 14 14 14 13 14 15 16 16 14
11 10 10 10 10 9 10 11 10 10 10 10 9 8 9 8 8 7 6 5 4 5 4 4 4 3 5 6 5 4 4 6 6 7 8 8 7 5 3 3 3 2 2 0 3 4 3 3 4 4 4 9 8 5 5 8 11 14 14 12 12 14 14 15 12 8 8 9 10 12 11 13 14 13 13 16 15 16 16 15 14 14 14 15 15
11 10 10 10 10 10 10 10 10 10 10 10 10 9 9 9 7 6 6 5 5 5 4 4 4 4 4 5 4 4 4 5 5 7 8 8 8 6 3 3 3 2 2 1 1 2 2 2 3 6 7 8 7 6 6 8 9 8 8 8 7 10 12 13 14 14 10 8 9 11 13 11 13 15 16 15 16 16 16 17 17 17 16 16 17
10 10 11 10 10 10 10 10 10 10 10 10 10 9 9 8 7 6 7 7 7 6 6 5 4 4 4 4 5 4 3 4 5 7 7 7 7 5 3 3 3 3 2 2 2 1 2 2 3 5 7 7 7 8 7 8 8 7 7 8 8 9 9 9 8 9 9 9 9 10 13 13 12 15 15 15 15 14 14 17 19 19 18 16 15
10 10 11 11 11 10 11 10 10 9 9 10 11 10 9 9 9 6 6 5 4 4 4 4 4 4 3 4 5 4 3 3 4 6 6 6 6 4 3 3 3 3 3 3 3 2 2 2 3 5 6 7 9 14 11 8 6 7 8 8 8 8 8 9 12 12 11 10 10 11 12 15 18 17 17 17 16 14 13 13 15 14 15 14 13
11 11 11 10 10 10 10 11 11 10 10 11 11 10 10 8 7 6 7 6 6 5 5 4 3 4 4 4 5 4 2 2 4 5 5 5 5 4 3 3 3 3 2 3 3 3 3 3 3 4 5 6 10 14 13 10 5 7 7 8 8 7 9 9 12 15 15 17 18 19 20 21 21 22 23 25 18 16 15 14 14 15 13 15 14
11 11 11 11 11 11 11 11 11 10 10 11 11 9 8 7 7 6 8 7 6 5 4 4 3 3 4 4 3 4 2 1 2 4 4 5 4 3 2 3 3 3 3 2 2 3 4 7 6 4 5 6 12 15 12 7 5 6 6 8 9 10 10 9 9 10 13 15 16 18 19 19 20 21 21 21 21 16 13 16 18 15 16 18 19
12 12 11 11 10 10 10 11 10 10 10 10 10 10 9 9 7 6 6 6 6 5 4 5 3 2 2 3 5 4 3 1 1 2 3 3 2 2 2 3 4 3 3 4 3 4 5 5 7 5 5 8 13 13 12 7 5 5 5 6 8 10 10 11 11 12 13 13 13 13 13 15 14 14 15 22 21 16 13 15 15 13 15 17 18
11 10 11 11 11 11 10 11 10 11 10 9 8 9 7 7 7 6 5 6 6 5 4 5 5 4 2 2 3 3 3 1 1 2 2 1 2 2 1 3 2 2 3 3 5 6 5 6 6 8 11 12 13 13 12 10 5 5 4 6 7 11 10 9 11 11 11 11 12 12 13 13 13 13 14 15 15 14 14 14 13 14 14 18 17
11 11 11 10 10 10 9 10 11 9 9 9 8 7 7 8 7 6 6 5 5 5 5 4 4 4 3 3 3 3 2 2 1 1 3 2 1 4 2 1 0 1 2 3 3 5 7 7 6 8 11 13 13 13 11 11 9 5 4 5 5 10 11 8 12 13 10 11 11 11 11 11 12 12 13 14 14 13 13 13 13 13 13 14 18
11 11 11 11 11 10 10 9 9 9 8 9 8 7 5 7 7 7 7 6 6 6 4 4 4 3 3 3 3 3 3 3 2 2 4 4 2 2 2 0 1 0 1 3 4 4 5 6 6 9 12 13 12 12 11 10 11 4 7 10 13 14 10 8 8 9 9 9 10 10 11 11 12 13 13 14 14 15 14 14 13 13 12 12 14
11 11 11 11 11 10 10 11 9 8 8 9 10 8 7 8 7 7 8 7 7 6 5 4 3 3 3 3 3 3 3 2 4 3 4 5 4 4 4 2 3 1 0 3 4 6 5 5 6 9 12 12 11 10 9 10 7 6 11 12 13 14 10 7 8 8 9 10 10 11 12 12 13 14 14 14 15 15 15 15 15 14 12 12 14
12 12 11 11 11 10 10 11 10 9 10 9 9 9 8 7 7 6 7 7 6 6 5 5 4 4 4 5 4 4 3 3 4 5 3 5 6 6 5 5 4 1 1 4 5 6 6 5 7 11 12 11 9 8 9 8 7 11 11 12 12 10 7 8 8 8 8 9 10 11 12 12 12 13 14 14 15 16 15 15 15 15 13 12 12
12 11 11 11 11 10 10 10 10 10 10 10 10 9 8 8 8 6 7 7 7 6 6 5 5 6 5 5 5 5 5 5 4 4 6 6 6 6 6 6 4 2 1 4 4 5 6 9 10 10 9 9 9 7 6 8 10 11 11 11 9 6 7 7 8 8 9 10 10 10 11 12 12 12 13 14 15 14 13 14 14 13 12 11 11
12 12 11 10 11 11 10 9 9 10 10 9 10 9 10 8 8 7 7 7 7 6 6 6 5 5 6 6 6 6 5 4 5 4 4 5 5 6 7 6 3 4 6 6 8 9 7 7 9 9 9 7 6 4 4 6 10 11 10 8 6 6 6 7 8 8 9 9 10 11 11 11 12 13 13 13 13 14 15 16 17 17 16 15 14
12 11 11 10 10 10 11 9 9 9 9 8 8 8 8 8 8 8 7 7 7 6 6 6 6 6 6 6 6 5 5 5 6 5 4 4 5 4 3 2 3 4 3 3 5 7 9 7 6 7 7 8 6 5 5 6 6 6 6 6 6 6 6 6 6 7 8 9 10 10 11 11 11 12 13 13 14 14 13 14 14 15 15 15 13
12 12 12 11 10 10 10 12 12 8 9 9 9 7 7 8 8 8 9 8 8 7 6 6 7 7 7 6 5 4 6 6 6 7 7 6 6 3 2 1 1 1 4 5 5 4 5 6 6 3 5 6 7 6 6 6 5 4 6 6 6 6 6 7 7 5 6 7 8 9 9 10 12 12 12 13 13 13 14 14 14 15 14 14 14
11 12 11 10 10 10 10 10 10 9 9 8 8 9 9 8 8 6 6 7 8 8 7 7 7 7 7 7 7 7 6 7 9 9 8 8 6 4 3 4 1 2 3 4 4 4 3 5 7 7 6 6 6 7 6 6 6 6 6 6 7 7 7 7 8 8 8 8 9 10 10 10 11 11 12 13 14 14 13 14 14 14 14 12 12
11 11 11 10 10 10 9 9 9 9 9 8 7 3 3 3 7 8 7 7 10 11 10 9 9 7 7 8 9 10 10 12 13 12 12 10 9 7 4 3 3 3 4 4 1 2 2 3 5 4 5 5 6 6 7 6 7 7 7 6 6 7 7 7 7 7 8 8 8 8 10 10 11 11 12 12 13 13 14 14 14 14 14 14 13
10 9 10 10 11 10 9 9 8 8 8 8 7 7 5 3 6 3 1 4 8 11 11 13 11 12 10 8 8 10 9 9 9 11 12 11 9 5 5 6 5 5 4 1 1 0 2 5 6 5 4 3 4 6 6 6 7 6 6 6 6 7 7 7 7 7 8 8 8 8 8 9 10 11 11 12 13 13 13 12 13 14 14 14 13
11 10 10 9 11 10 9 10 9 8 8 8 8 7 7 6 1 5 5 2 2 7 10 11 12 13 14 12 9 7 7 7 8 10 11 10 7 7 6 6 6 5 4 3 2 3 2 3 6 6 5 4 5 6 6 6 6 6 5 6 7 5 6 7 7 6 7 7 8 9 9 9 10 10 10 11 12 12 12 13 14 14 14 14 13
12 10 10 10 10 10 9 9 8 8 8 8 7 6 7 7 8 4 2 6 5 2 3 8 11 13 14 11 13 13 12 10 10 10 9 8 8 7 6 6 6 5 4 2 3 6 3 3 5 6 5 5 6 5 7 7 7 6 5 5 6 6 6 6 5 6 6 7 7 8 8 9 10 10 10 10 10 12 13 13 13 13 13 13 14
13 11 10 11 11 9 9 9 9 8 8 8 8 7 6 6 6 6 5 1 1 2 3 2 5 6 7 7 9 7 7 8 9 9 9 8 7 6 4 2 5 5 6 5 3 6 5 5 5 6 6 5 6 5 6 7 6 6 6 6 6 6 6 5 5 7 6 7 7 7 8 8 8 9 11 11 10 10 11 12 12 13 14 13 13
10 12 16 14 11 10 10 9 9 8 8 8 7 7 7 6 6 7 7 7 6 6 4 4 4 7 6 4 6 6 6 7 9 9 9 8 7 5 2 1 1 1 2 3 4 6 6 6 6 7 6 6 6 5 6 7 7 7 6 6 6 6 6 6 6 6 6 6 7 7 7 8 8 8 8 9 10 11 11 12 12 12 13 14 13
11 10 10 13 11 9 9 9 9 9 9 8 8 7 7 6 6 6 6 7 7 7 5 6 4 5 7 6 8 8 8 8 8 8 8 7 7 5 2 6 4 6 5 5 5 6 6 6 6 7 6 6 6 6 6 7 7 6 5 5 5 6 6 5 6 6 6 5 6 7 7 8 8 8 9 9 10 9 9 10 10 11 11 12 12
10 10 10 10 9 9 8 7 6 7 6 7 7 7 6 6 6 6 6 6 7 6 6 5 2 1 2 4 7 8 8 6 6 6 7 7 7 4 6 6 6 6 5 7 7 5 6 7 6 6 6 6 7 6 6 7 7 5 5 5 5 4 5 5 5 5 6 6 6 6 6 7 7 7 7 9 9 10 10 10 10 10 10 13 13
11 11 10 10 9 9 8 8 8 9 8 8 7 7 7 7 7 7 6 7 7 7 6 4 5 7 7 8 7 7 4 6 5 2 3 4 3 5 6 6 5 6 8 7 7 6 7 7 6 6 7 6 7 7 6 7 7 6 5 5 4 4 6 6 5 5 4 5 6 6 6 7 7 7 7 7 8 9 10 10 10 11 11 12 10
10 13 15 14 12 10 9 9 8 8 7 8 7 8 8 7 7 6 6 6 6 6 6 5 6 7 8 6 4 4 6 3 4 7 7 7 7 7 7 7 6 7 7 8 7 6 7 7 7 6 6 6 7 7 7 7 7 6 6 4 5 5 5 5 6 6 5 6 6 6 6 6 6 6 6 6 8 8 9 9 9 9 9 10 9
10 9 11 15 9 10 9 9 9 9 9 8 7 7 7 7 8 8 7 6 6 6 6 6 6 7 8 3 4 5 6 7 7 7 7 7 7 7 7 7 7 8 8 8 7 7 7 7 7 7 7 6 7 7 7 7 7 7 4 4 5 5 6 5 5 5 6 6 6 7 6 6 6 6 6 6 7 7 7 8 8 8 8 8 9
9 10 10 11 10 8 7 7 7 7 6 7 7 7 8 8 7 7 6 7 7 7 6 7 8 8 7 9 10 10 8 7 8 7 7 8 7 7 7 7 8 8 8 7 8 7 7 7 7 7 6 7 7 7 7 7 7 6 6 6 4 5 5 5 5 5 6 5 6 6 6 6 5 5 7 7 6 6 7 6 7 8 8 8 8
9 9 10 9 9 8 7 7 8 10 9 8 8 8 7 7 7 7 7 7 7 7 7 7 8 8 8 11 10 12 8 7 6 6 6 7 7 7 7 7 7 7 8 8 8 8 7 7 7 7 7 7 7 7 7 7 7 7 6 6 6 6 5 7 6 5 5 5 5 5 6 6 6 4 4 5 6 6 7 8 7 7 7 7 8
10 9 9 8 8 8 8 7 7 7 7 7 7 7 7 7 7 8 7 8 8 7 7 8 8 7 8 9 8 9 7 7 6 7 7 7 7 7 7 8 8 8 8 8 7 7 7 6 7 7 7 8 8 7 8 8 8 7 7 6 7 6 6 6 6 6 5 5 5 5 5 5 6 6 5 5 5 5 6 7 7 7 7 7 6
9 9 9 9 8 7 7 7 7 8 8 9 9 8 8 7 6 6 7 8 8 8 8 8 8 7 7 6 4 6 7 7 7 7 8 7 7 7 8 8 7 7 7 7 8 7 6 7 7 8 7 7 8 7 7 7 7 7 7 7 7 7 7 6 7 7 6 5 6 5 5 5 5 4 5 5 4 6 6 6 7 7 7 7 7
9 10 9 8 8 7 8 7 8 8 8 7 7 7 7 7 8 8 7 7 8 8 7 8 8 7 7 6 6 7 7 7 7 7 7 8 8 8 8 7 7 7 7 7 7 6 6 7 7 7 8 8 8 7 8 7 7 7 7 7 7 8 8 8 8 7 6 5 5 5 5 4 6 5 5 5 3 4 5 4 4 6 7 7 7
9 9 9 8 8 8 8 8 7 7 7 7 7 7 6 7 7 7 7 7 7 7 8 8 7 7 7 7 7 6 7 7 7 7 7 7 7 8 8 7 7 7 7 7 6 6 7 7 7 7 8 9 8 7 7 7 7 7 7 7 8 9 8 7 5 5 6 6 7 5 5 4 5 5 5 4 3 3 3 3 3 3 4 5 6
9 8 9 8 8 8 8 7 7 7 7 7 6 7 7 7 7 7 7 8 8 7 7 8 7 7 7 7 7 7 7 7 7 7 8 8 8 8 8 7 7 7 7 7 6 6 6 7 7 8 8 9 8 8 8 7 7 7 7 7 7 8 8 6 6 6 7 7 6 6 5 6 6 5 6 3 3 3 3 3 2 3 4 4 4
8 7 7 7 6 7 7 6 7 6 6 6 6 7 7 7 7 7 7 7 7 7 7 6 7 7 6 7 7 7 7 7 7 7 7 7 8 8 7 7 7 8 7 7 7 7 7 7 8 7 8 8 8 8 8 8 7 7 7 7 7 9 10 8 6 7 6 6 6 6 6 6 6 5 5 4 4 2 3 6 4 2 3 4 5
7 7 6 7 6 7 7 6 7 7 6 6 6 6 7 6 7 7 7 7 7 7 7 7 7 7 6 7 7 7 6 5 7 7 7 7 7 8 8 7 7 7 7 7 8 7 7 7 7 8 8 8 8 8 9 8 9 8 8 7 10 14 13 12 8 8 8 7 6 6 5 5 5 6 5 4 4 3 3 3 2 3 2 2 3
6 6 6 7 7 6 6 6 6 6 6 6 7 7 7 7 7 7 7 7 7 7 7 7 7 7 7 7 7 7 7 7 7 7 8 7 7 7 7 7 7 7 7 8 8 8 7 7 7 7 8 8 8 8 8 8 9 9 8 10 13 13 12 13 13 13 9 7 8 7 7 7 6 6 6 5 4 4 4 4 4 3 2 1 2
6 6 6 6 7 6 6 7 7 7 6 6 6 7 7 7 7 7 7 7 7 7 7 7 7 7 7 8 7 7 7 8 8 7 7 7 7 7 7 7 7 7 7 7 8 8 7 7 7 8 7 8 8 8 8 8 8 9 12 15 14 13 13 11 10 12 14 9 6 7 7 8 7 7 7 6 5 5 7 6 4 3 3 2 2
Wind_Direction
130 131 125 120 120 123 126 127 127 126 125 126 120 117 113 109 108 114 102 95 102 91 90 87 85 88 82 76 76 72 73 67 62 83 90 98 102 108 109 104 105 103 96 81 80 88 90 89 71 42 28 49 18 358 354 340 334 323 303 301 305 300 281 272 286 296 294 277 290 295 300 301 302 300 303 307 310 310 304 305 302 306 305 303 303
137 131 122 118 120 124 123 125 126 124 120 119 114 113 112 111 115 104 95 90 95 97 91 87 87 91 88 82 79 77 75 74 71 82 95 101 103 115 113 110 106 104 98 97 88 91 103 94 56 13 9 35 358 341 318 319 318 321 318 314 306 306 297 269 279 291 302 308 298 295 295 298 296 298 301 307 304 305 309 306 304 298 303 299 301
136 129 123 119 117 116 116 120 124 122 118 112 109 112 111 112 112 105 102 96 82 89 94 91 90 91 89 84 84 78 74 77 69 83 90 104 111 116 123 120 120 118 117 125 124 118 92 90 68 328 350 354 322 297 299 306 311 317 310 312 306 299 300 286 288 295 298 301 301 304 302 304 299 301 301 295 295 298 301 303 304 304 294 296 294
134 128 124 116 114 116 119 125 122 122 116 114 113 113 111 108 109 104 104 101 96 82 81 88 89 90 91 84 79 80 74 73 72 70 84 101 112 122 128 126 127 133 137 144 144 133 131 106 131 288 297 309 309 313 316 317 319 315 312 306 299 298 296 294 277 275 291 300 305 302 303 307 299 294 295 294 295 296 294 295 297 293 292 289 293
133 127 124 126 134 134 136 136 131 125 118 116 116 116 114 111 107 110 107 98 97 97 84 80 86 83 85 87 84 75 71 72 77 73 70 83 102 114 128 131 135 142 150 160 163 147 135 136 207 250 258 301 322 330 321 328 322 319 306 301 302 294 296 295 292 282 286 295 298 295 298 293 290 294 297 301 303 294 293 292 293 295 292 288 286
129 130 136 136 137 139 139 133 130 126 121 119 122 121 118 115 110 105 114 111 102 91 96 84 88 88 85 83 81 78 71 71 76 79 76 77 81 85 97 126 144 151 153 167 163 152 135 161 217 235 242 272 303 309 320 320 316 311 309 305 301 300 300 300 297 295 293 289 294 304 303 304 306 298 300 303 305 306 302 291 286 288 296 299 294
141 142 141 139 139 139 139 138 135 127 121 122 122 121 119 118 115 115 115 113 111 104 90 91 81 89 86 81 74 77 74 67 68 66 72 77 86 90 104 122 144 148 178 176 165 113 143 186 222 229 246 259 280 294 304 309 309 309 304 301 302 307 305 305 305 304 300 299 298 289 297 298 298 304 308 300 297 295 301 305 302 295 281 289 299
143 140 139 135 140 145 145 140 134 123 119 123 125 123 120 116 114 116 114 107 106 104 100 95 87 83 81 78 73 74 73 64 55 52 54 67 86 84 102 149 160 187 227 214 87 130 188 223 233 240 246 263 270 283 288 298 304 301 304 308 310 311 310 308 309 307 306 304 299 305 303 307 307 293 296 307 305 296 286 299 303 310 310 297 283
146 146 144 144 148 148 140 136 133 121 123 124 125 123 120 118 116 115 110 106 102 101 99 97 97 85 74 76 71 64 66 54 48 47 64 56 74 85 67 83 170 191 217 4 100 157 218 242 257 267 266 281 284 302 307 302 299 303 308 316 313 314 307 308 306 309 306 304 304 303 308 311 309 312 316 315 315 309 311 304 296 296 297 301 299
150 150 149 148 145 141 141 141 135 124 128 129 128 125 121 119 115 110 106 106 108 105 96 92 90 95 89 75 70 64 56 44 32 37 66 91 76 83 80 72 83 101 322 36 2 148 228 251 272 277 298 312 315 313 310 310 309 311 312 319 316 310 307 309 313 311 310 311 312 315 316 314 313 314 309 307 304 305 304 308 305 306 303 297 291
153 152 149 147 145 142 139 138 133 130 131 126 126 125 122 119 114 111 111 114 113 109 101 95 88 87 90 88 75 66 54 42 32 66 77 84 85 79 84 68 51 60 28 135 201 199 240 264 275 305 319 323 322 312 311 313 315 318 320 319 315 314 314 319 308 310 311 310 309 313 311 308 309 308 308 306 310 310 311 309 307 309 310 314 313
154 151 146 145 145 144 138 138 134 129 130 132 132 129 123 119 118 120 120 120 114 104 100 100 99 95 91 82 76 70 61 38 51 70 74 72 79 86 85 75 57 27 10 155 180 188 237 277 295 300 314 312 308 320 317 315 318 319 319 317 317 314 311 304 312 316 316 315 315 312 310 309 309 313 310 313 313 311 306 304 306 309 309 307 302
151 148 148 146 146 141 141 141 140 139 139 136 134 131 126 122 124 127 129 132 117 109 116 106 100 97 92 87 76 64 65 46 66 79 79 75 75 81 71 81 80 40 0 206 171 185 231 283 295 306 322 316 321 322 317 318 319 320 318 320 316 319 314 312 302 293 294 305 306 308 310 310 312 309 310 309 310 307 309 309 309 305 300 296 295
150 149 148 146 145 145 145 142 140 140 139 137 136 134 131 133 134 133 127 119 117 115 109 110 109 94 96 94 88 73 65 52 76 84 80 73 66 66 55 54 61 50 27 31 152 211 232 265 312 323 317 314 313 320 328 324 322 320 322 319 315 311 311 305 305 305 309 302 302 303 304 307 303 303 305 308 310 310 312 310 309 304 302 296 294
150 149 148 146 146 147 146 143 139 140 142 140 139 138 136 133 136 142 139 140 136 135 131 119 111 101 93 92 89 72 58 66 88 89 87 82 74 69 46 41 38 34 18 33 49 16 301 277 285 291 296 299 306 318 334 328 319 317 317 320 314 311 306 305 309 317 317 312 304 298 299 301 298 301 304 306 303 302 303 304 306 303 296 290 284
147 147 150 154 154 152 148 146 143 142 143 144 143 143 143 147 148 152 138 128 116 109 103 106 110 110 101 95 93 83 61 71 90 85 81 75 70 57 53 46 33 19 13 7 2 346 313 307 320 302 295 302 307 321 338 331 322 321 325 316 313 306 301 294 302 308 309 306 306 304 303 301 303 305 305 307 306 304 304 302 299 296 298 298 293
156 157 156 156 154 152 149 148 149 148 149 148 149 149 150 150 151 148 133 140 139 139 146 136 139 130 123 114 111 112 102 96 98 96 90 88 71 53 51 50 38 19 349 330 326 309 310 311 298 295 302 306 313 323 337 337 326 328 322 318 309 312 313 319 322 319 314 312 309 307 305 306 308 308 308 306 305 312 317 311 306 310 304 304 302
162 161 160 158 155 154 154 154 154 153 153 154 153 154 154 151 156 158 146 150 151 159 145 129 146 145 136 144 147 136 161 170 92 80 81 79 90 97 80 78 40 18 339 321 306 307 315 323 314 300 311 312 322 322 333 340 330 323 325 318 325 330 326 326 325 317 313 311 310 310 309 311 312 312 309 310 314 322 324 317 310 308 305 305 307
165 164 159 156 153 153 155 156 157 157 157 155 154 154 159 160 159 150 150 149 156 150 145 143 154 162 159 156 171 155 181 209 64 55 72 92 105 110 104 85 55 7 354 338 332 349 329 316 316 320 315 318 321 324 332 344 325 323 315 323 331 332 325 327 323 325 330 330 326 324 321 319 317 318 317 316 318 322 321 310 305 305 307 310 310
161 153 153 153 154 160 162 159 158 159 157 150 150 151 146 141 149 151 154 150 149 158 156 158 164 185 184 203 192 163 181 234 326 325 356 17 137 126 131 79 43 356 351 359 353 334 323 317 322 331 332 331 328 326 332 338 337 311 327 339 334 325 322 322 319 323 321 321 316 319 316 316 318 319 320 320 320 322 320 314 309 309 308 309 308
149 150 149 154 160 160 159 159 157 157 154 151 146 142 145 144 142 142 147 147 146 159 171 175 170 171 180 203 202 194 196 202 274 298 287 279 220 148 125 129 175 51 3 340 336 305 305 310 311 320 329 328 325 326 334 335 339 323 327 338 313 303 318 325 323 324 322 321 321 320 320 322 323 322 322 322 321 322 323 320 316 314 313 311 311
146 153 157 159 160 161 159 155 154 151 146 142 143 142 140 135 143 150 152 155 164 177 180 176 171 169 173 189 216 218 226 199 198 250 250 264 263 202 144 196 180 131 354 328 300 278 276 292 305 312 321 322 322 327 333 337 336 331 325 318 320 329 331 322 319 323 324 324 323 323 325 328 328 327 325 324 323 323 326 326 324 320 314 309 308
153 156 157 160 163 160 157 153 153 150 151 152 147 149 149 150 152 155 155 164 171 179 181 175 156 165 182 199 222 234 241 248 204 216 233 238 259 249 215 193 218 190 129 300 292 287 295 295 294 310 319 321 321 324 331 339 337 324 319 328 329 329 332 332 328 328 327 326 326 327 327 328 331 330 328 327 326 328 330 329 326 325 317 311 308
155 157 162 163 161 160 158 157 154 155 153 152 151 150 158 160 160 169 166 167 174 178 185 168 160 171 195 215 222 235 239 231 242 225 226 235 241 241 222 216 208 192 206 245 264 273 292 304 306 309 312 315 319 328 336 334 323 318 326 328 331 334 336 335 334 329 326 326 329 330 329 327 326 325 328 327 326 327 324 323 325 325 325 319 312
158 161 162 162 161 158 156 158 158 157 158 156 157 160 163 165 168 178 167 172 175 179 184 174 184 196 193 209 220 225 232 227 244 235 222 240 243 240 244 215 223 200 250 255 257 264 278 289 296 306 311 321 333 340 337 326 323 321 324 330 336 344 341 336 331 333 335 333 329 324 324 326 322 315 315 320 320 320 327 330 330 327 326 327 319
159 161 161 161 161 156 157 160 160 161 160 165 164 166 170 174 174 175 179 181 180 180 181 182 196 193 205 214 214 217 222 226 239 245 237 243 249 249 248 246 241 246 252 271 279 289 296 316 328 335 340 339 337 334 329 319 314 313 324 337 345 341 338 334 333 337 331 328 329 326 320 318 322 321 319 320 328 334 336 337 339 340 343 341 339
159 160 162 160 158 159 159 162 162 163 164 164 165 170 171 176 180 179 185 185 184 186 178 183 190 196 209 217 217 214 218 220 234 248 249 245 249 241 257 270 281 281 284 300 324 337 333 339 324 308 296 295 289 283 302 320 325 330 332 333 339 338 330 331 324 322 326 328 324 322 319 317 314 323 333 334 335 336 337 336 339 341 340 342 337
163 164 160 159 161 163 164 162 160 165 170 168 170 172 177 181 185 188 187 188 184 190 182 185 190 196 209 207 198 205 222 224 233 234 239 233 240 225 229 240 246 306 323 317 316 314 320 324 330 345 350 358 350 343 334 325 313 320 326 331 334 335 329 319 317 323 318 314 307 311 317 326 331 330 332 335 335 334 338 341 343 340 344 342 349
158 157 158 158 162 165 163 166 169 166 169 173 179 180 180 183 189 197 202 185 185 181 185 195 197 201 195 187 182 203 212 223 232 212 217 207 205 204 227 235 237 263 268 296 317 328 347 349 359 348 352 341 330 324 315 323 320 320 325 335 337 337 340 350 341 330 325 329 329 326 323 329 328 331 332 335 338 336 338 342 344 346 342 350 354
159 161 161 162 161 162 164 169 169 167 166 170 165 130 31 170 189 189 202 208 200 193 178 190 196 183 186 203 187 181 198 216 222 205 214 216 216 202 197 193 209 239 267 296 266 318 341 334 309 306 308 328 321 312 309 313 315 324 324 327 335 336 338 334 330 326 326 326 320 325 328 330 329 334 334 334 333 338 341 345 345 347 349 351 350
160 160 162 166 167 167 164 166 168 165 167 163 162 164 150 65 51 63 223 208 210 214 203 209 190 183 181 197 220 238 239 228 212 205 212 216 213 193 193 206 216 239 243 75 36 344 313 325 308 313 298 296 293 287 293 303 301 309 311 315 314 327 330 329 327 329 326 325 327 328 327 332 330 331 335 334 334 335 342 345 347 350 355 352 351
165 168 169 164 164 165 165 166 164 166 168 168 167 168 163 161 137 41 57 61 255 229 225 219 202 196 199 192 178 217 233 239 222 216 210 202 185 175 195 208 234 239 251 168 267 272 212 261 290 293 296 303 284 286 287 285 289 289 298 320 319 317 329 322 321 325 317 325 330 331 334 334 332 331 332 335 336 337 343 348 352 351 352 354 356
162 163 163 160 163 165 164 164 167 166 167 162 166 166 168 175 179 184 26 43 68 77 208 212 203 196 198 200 186 182 194 204 207 207 192 174 168 178 201 233 236 234 132 138 223 271 267 251 266 281 279 268 272 277 282 281 283 288 284 282 293 302 308 305 314 318 323 323 323 328 330 330 333 333 335 338 343 341 344 349 350 351 352 355 355
163 162 162 163 163 167 168 167 166 170 167 169 171 172 176 172 172 166 153 140 19 14 43 118 180 196 208 206 196 192 185 187 188 183 168 166 174 185 186 215 245 232 185 212 197 244 268 282 278 273 277 265 262 271 277 280 282 283 291 279 272 285 299 313 335 332 330 328 331 325 331 330 333 338 338 339 340 344 346 345 348 353 356 357 354
162 165 161 162 168 169 170 167 168 168 164 167 165 169 170 172 168 166 170 171 183 187 201 223 210 187 191 197 209 192 179 179 178 173 167 168 177 199 199 334 313 294 300 246 231 243 261 261 270 278 275 274 265 252 265 274 282 289 288 288 293 300 311 326 324 322 324 327 330 331 327 329 334 336 337 336 341 346 347 346 346 352 353 355 355
161 161 168 169 167 168 167 168 168 169 172 173 166 164 160 161 169 180 181 182 182 196 221 219 214 219 205 210 205 203 203 194 178 165 167 175 185 171 272 273 283 279 274 253 228 243 234 251 254 265 264 263 261 262 255 263 267 273 277 278 281 292 303 309 317 323 322 321 319 321 329 334 337 337 336 338 343 343 341 344 343 345 351 356 354
163 164 168 173 169 164 158 152 163 168 159 145 145 153 161 169 174 180 186 189 197 208 209 208 179 234 251 253 224 220 210 196 181 171 177 190 189 183 217 231 243 265 268 271 273 266 266 262 234 249 260 258 258 247 257 263 264 265 274 270 262 278 282 286 297 308 319 322 318 323 328 327 332 339 341 338 339 342 344 346 346 345 349 355 358
165 166 170 169 163 158 153 164 162 153 150 154 160 161 165 172 181 187 191 200 204 201 211 210 198 199 206 232 199 194 191 186 168 203 208 195 190 213 224 228 228 231 257 267 260 261 267 274 266 254 262 249 253 251 248 260 261 257 263 277 271 259 273 290 300 303 308 305 310 318 323 327 335 336 339 343 339 340 343 345 349 348 348 357 3
165 165 163 165 166 164 162 157 152 155 160 162 167 167 175 179 183 190 200 211 210 214 217 204 202 211 222 221 158 145 134 161 197 236 232 229 223 223 223 225 229 240 247 251 266 258 254 265 268 260 259 255 248 245 240 252 259 260 254 260 278 286 293 294 302 306 310 308 310 311 315 320 328 336 333 337 342 341 338 342 348 351 350 348 351
159 163 165 163 165 168 161 159 159 164 167 171 176 174 172 183 190 192 199 201 214 217 217 209 217 224 229 188 180 160 175 209 216 227 234 242 237 229 214 228 231 236 242 249 245 247 250 256 257 263 262 257 245 244 237 243 252 251 249 241 254 276 274 273 277 289 294 300 307 307 314 317 323 327 334 350 340 333 337 340 340 346 348 345 342
161 160 159 169 168 162 159 148 151 155 163 179 174 177 191 191 190 190 196 204 213 216 218 219 221 233 221 218 201 180 195 208 222 221 225 231 237 236 224 228 231 239 239 239 245 242 240 251 258 252 254 253 248 239 241 240 250 253 249 249 243 250 268 273 269 271 281 294 296 303 304 310 318 345 345 331 332 337 336 338 347 350 349 349 348
155 154 162 168 159 160 154 157 165 174 179 184 180 187 192 190 192 196 200 205 211 215 220 227 233 237 239 224 210 195 201 228 220 225 235 234 238 243 236 235 230 229 233 233 232 234 237 239 250 248 250 251 244 244 239 248 246 245 246 247 244 248 255 263 261 263 271 281 290 291 295 302 308 317 318 326 340 341 342 348 344 347 355 351 351
151 154 158 158 162 163 161 170 172 175 183 184 194 194 192 187 196 198 203 208 211 212 216 227 239 239 243 238 210 191 209 222 225 229 235 238 236 240 241 239 234 228 229 236 236 228 231 237 249 248 241 244 237 232 226 232 232 235 238 240 242 238 242 254 260 260 257 264 274 283 291 299 305 314 324 337 344 343 351 345 346 350 349 353 355
148 148 153 160 166 162 169 169 178 182 180 190 194 193 192 194 198 199 204 211 213 215 215 225 231 235 244 238 174 179 206 217 221 227 230 234 236 239 242 243 241 238 236 237 239 227 224 236 247 255 253 251 248 240 236 237 225 226 230 233 241 240 238 242 244 247 240 243 256 274 287 295 295 304 321 334 347 356 347 350 351 347 345 356 355
154 154 157 165 175 179 185 186 182 182 185 179 183 191 193 194 201 204 201 209 215 216 218 223 225 227 239 236 197 202 211 215 219 224 229 230 232 239 242 244 240 237 238 240 235 218 219 227 239 251 262 258 249 241 242 241 230 226 225 218 230 240 238 230 229 225 211 210 230 250 271 274 288 299 309 311 330 338 346 342 336 345 355 356 357
158 158 160 166 176 185 187 188 189 185 183 182 186 191 194 200 204 200 202 208 209 211 216 219 219 218 221 227 218 211 219 216 222 224 232 238 237 242 242 241 243 241 240 244 241 222 223 224 229 237 245 255 257 251 243 245 241 235 230 223 226 235 236 228 214 193 200 204 212 219 241 263 271 272 272 294 302 314 322 329 342 351 349 341 345
153 161 161 166 175 181 184 184 180 189 190 193 199 202 200 200 199 200 201 205 207 211 211 212 207 214 217 217 210 214 215 213 222 222 225 231 235 240 246 245 245 249 249 247 244 237 234 234 233 234 243 250 257 260 259 250 245 241 234 232 238 242 246 229 209 207 209 205 199 194 213 234 261 274 283 288 315 322 325 331 345 338 331 338 338
149 155 157 157 166 177 187 170 170 170 185 195 205 208 211 209 202 203 204 206 207 210 215 216 213 217 216 224 224 223 220 220 225 228 233 237 239 242 243 244 242 244 250 256 250 240 233 235 237 236 242 248 252 255 259 260 256 245 242 235 234 237 236 223 218 221 213 198 190 200 203 216 240 254 258 265 272 280 323 317 324 331 332 334 341
146 153 154 160 171 183 181 170 171 170 181 186 203 220 217 210 212 210 209 209 210 213 210 215 223 220 220 230 228 229 229 227 229 234 234 238 239 243 240 242 245 248 246 253 256 249 242 238 238 238 239 244 248 249 255 258 258 255 247 245 240 238 237 230 224 229 209 197 199 197 198 208 227 242 247 243 253 241 250 265 269 288 303 310 328
153 160 159 166 182 192 181 175 180 195 195 196 196 208 209 208 209 213 212 213 217 221 223 220 222 221 219 226 228 229 225 226 231 233 236 240 241 243 245 244 244 245 242 245 252 254 251 246 244 243 242 243 245 247 248 250 253 252 252 249 250 243 238 231 229 231 214 205 204 201 201 211 218 230 237 238 239 239 255 269 271 272 277 297 304
155 164 170 178 189 194 186 182 186 198 197 199 205 211 209 210 215 214 210 210 216 222 223 222 225 226 226 225 224 223 223 226 230 234 238 242 244 244 243 244 246 247 247 246 251 255 253 254 251 248 246 247 248 248 247 247 248 250 250 254 255 253 245 232 231 233 223 217 207 202 199 210 218 229 237 239 233 233 245 251 261 263 268 258 250